This demonstration page uses our WeatherBlox Daily Observations layout. Learn more.

Left ArrowRight Arrow

Hourly Observations for November 2, 2018

Temp ( °F °C ) Dew Point ( °F °C ) Humidity (%) Winds ( mph kmh ) Pressure ( in mb ) Visibility ( mi km ) Precip ( " mm )
12:57 am 00:57 Mostly Clear 44 6.7 35 1.7 71 71 NW 13 20 29.86 1011 10 16 0.00 0.00
1:57 am 01:57 Clear 42 5.6 34 1.1 73 73 NW 10 17 29.87 1012 10 16 0.00 0.00
2:57 am 02:57 Clear 39 3.9 33 0.6 79 79 WNW 14 22 29.88 1012 10 16 0.00 0.00
3:57 am 03:57 Clear 40 4.4 31 -0.6 70 70 NW 14 22 29.90 1012 10 16 0.00 0.00
4:57 am 04:57 Clear 39 3.9 31 -0.6 73 73 NW 15 24 29.90 1012 10 16 0.00 0.00
5:57 am 05:57 Mostly Cloudy 39 3.9 30 -1.1 70 70 NW 15 24 29.91 1013 10 16 0.00 0.00
6:57 am 06:57 Cloudy 38 3.3 29 -1.7 70 70 NW 15 24 29.94 1014 10 16 0.00 0.00
7:57 am 07:57 Clear 36 2.2 29 -1.7 76 76 NW 16 26 29.96 1015 10 16 0.00 0.00
8:57 am 08:57 Sunny 38 3.3 30 -1.1 73 73 NNW 15 24 29.96 1015 10 16 0.00 0.00
9:57 am 09:57 Sunny 41 5 31 -0.6 67 67 NNW 16 26 29.96 1015 10 16 0.00 0.00
10:57 am 10:57 Partly Cloudy 44 6.7 32 0 63 63 N 20 31 29.98 1015 10 16 0.00 0.00
11:07 am 11:07 Mostly Cloudy 45 7 32 0 61 61 NNW 17 28 30.00 1016 10 16 0.00 0.00
11:57 am 11:57 Mostly Cloudy 45 7.2 33 0.6 63 63 N 16 26 29.97 1015 10 16 0.00 0.00
12:16 pm 12:16 Partly Cloudy 46 8 32 0 57 57 N 20 31 29.94 1014 10 16 0.00 0.00
12:57 pm 12:57 Cloudy 46 7.8 31 -0.6 56 56 N 14 22 29.95 1014 10 16 0.00 0.00
1:57 pm 13:57 Cloudy 46 7.8 30 -1.1 54 54 NNW 12 19 29.94 1014 10 16 0.00 0.00
2:57 pm 14:57 Mostly Cloudy 48 8.9 31 -0.6 52 52 NW 9 15 29.91 1013 10 16 0.00 0.00
3:57 pm 15:57 Sunny 48 8.9 30 -1.1 50 50 W 3 6 29.89 1012 10 16 0.00 0.00
4:57 pm 16:57 Mostly Sunny 47 8.3 30 -1.1 52 52 N 5 7 29.88 1012 10 16 0.00 0.00
5:57 pm 17:57 Partly Cloudy 47 8.3 30 -1.1 52 52 Calm 29.87 1012 10 16 0.00 0.00
6:57 pm 18:57 Cloudy 45 7.2 32 0 61 61 ESE 7 11 29.87 1011 10 16 0.00 0.00
7:57 pm 19:57 Cloudy 44 6.7 32 0 63 63 SE 6 9 29.86 1011 10 16 0.00 0.00
8:57 pm 20:57 Cloudy with Light Rain 44 6.7 32 0 63 63 ESE 8 13 29.85 1011 10 16 0.00 0.03
9:57 pm 21:57 Cloudy with Light Rain 43 6.1 34 1.1 71 71 SE 12 19 29.82 1010 10 16 0.00 0.03
10:57 pm 22:57 Cloudy with Light Rain 41 5 35 1.7 79 79 SE 10 17 29.81 1010 10 16 0.00 0.03
11:57 pm 23:57 Cloudy with Light Rain 40 4.4 36 2.2 86 86 SE 14 22 29.78 1009 10 16 0.00 0.03

Powered by AerisWeather